Home   Weather   Lindau (Bodensee)   Past weeks

Flag for Germany Past Weather in Lindau (Bodensee), Bavaria, Germany — Yesterday and Last 2 Weeks

Now
21 °F

Cold.


Feels Like: 21 °F
Forecast: 19 / 38 °F
Wind: 2 mph from South

Location: Bregenz

Current Time: Jan 21, 2017 at 8:47:58 pm

Latest Report: Jan 21, 2017 at 7:00 pm


Visibility: N/A

Pressure: 30.45 "Hg

Humidity: 89%

Dew Point: 18 °F

Location of Lindau (Bodensee)Location

Past Weather in Lindau (Bodensee) — Graph

°F

Lindau (Bodensee) Temperature Yesterday

Maximum temperature yesterday: 22 °F (at 1:00 pm)
Minimum temperature yesterday: 11 °F (at 3:00 am)
Average temperature yesterday: 17 °F

High & Low Weather Summary for the Past Weeks

 TemperatureHumidityPressure
High42 °F (Jan 13, 12:00 am)98% (Jan 12, 10:00 pm)30.75 "Hg (Jan 12, 10:00 pm)
Low9 °F (Jan 7, 5:00 am)59% (Jan 19, 2:00 pm)29.47 "Hg (Jan 13, 1:00 am)
Average26 °F84%30.28 "Hg
* Reported Jan 6 7:00 pm — Jan 21 7:00 pm, Lindau (Bodensee), Weather by CustomWeather, © 2017

Note: Actual official high and low records may vary slightly from our data, if they occured in-between our weather recording intervals... More about our weather records

Advertising

Lindau (Bodensee) Weather History for the Previous 24 Hours

Scroll right to see more
 ConditionsComfort  
Time TempWeatherWind HumidityBarometerVisibility
7:00 pm
Sat, Jan 21
21 °FCold.2 mph89%30.45 "HgN/A
6:00 pm21 °FCold.2 mph87%30.45 "HgN/A
5:00 pm22 °FCold.2 mph84%30.45 "HgN/A
4:00 pm22 °FCold.2 mph83%30.45 "HgN/A
3:00 pm24 °FCold.1 mph77%30.45 "HgN/A
2:00 pm23 °FCold.1 mph76%30.47 "HgN/A
1:00 pm22 °FScattered clouds.1 mph77%30.49 "Hg3 mi
12:00 pm19 °FCold.1 mph86%30.52 "HgN/A
11:00 am17 °FCold.1 mph75%30.54 "HgN/A
10:00 am16 °FFog.1 mph80%30.55 "Hg2 mi
9:00 am15 °FCold.1 mph81%30.54 "HgN/A
8:00 am16 °FCold.1 mph83%30.53 "HgN/A
7:00 am15 °FFog.1 mph84%30.53 "Hg2 mi
6:00 am16 °FCold.No wind83%30.53 "HgN/A
5:00 am17 °FCold.1 mph89%30.52 "HgN/A
4:00 am16 °FCold.2 mph82%30.54 "HgN/A
3:00 am18 °FCold.2 mph93%30.53 "HgN/A
2:00 am19 °FCold.2 mph94%30.53 "HgN/A
1:00 am19 °FCold.2 mph93%30.55 "HgN/A
12:00 am19 °FCold.1 mph89%30.55 "HgN/A
11:00 pm
Fri, Jan 20
19 °FCold.2 mph85%30.55 "HgN/A
10:00 pm19 °FCold.2 mph86%30.55 "HgN/A
9:00 pm20 °FCold.2 mph85%30.55 "HgN/A
8:00 pm21 °FCold.1 mph86%30.54 "HgN/A
Weather by CustomWeather, © 2017

See weather overviewHow to use our weather pages